Temp
56 57 57 58 59 59 59 60 56 55 58 59 56 58 58 59 54 58 59 59 59 59 59 60 60 61 59 58 59 61 62 65 64 67 69 72 76 76 72 75 77 78 78
55 55 55 56 56 57 57 57 57 58 58 61 58 58 58 57 58 59 58 58 57 57 58 57 57 57 59 57 57 57 59 62 62 57 60 64 69 72 70 73 73 70 72
54 54 54 54 56 56 56 56 56 56 57 58 58 57 56 57 57 57 57 56 56 56 56 56 56 56 57 55 55 54 55 55 60 57 55 53 53 57 70 68 68 66 67
55 54 54 53 55 54 55 56 56 56 55 56 55 54 54 52 54 55 55 56 55 55 55 55 55 54 56 54 55 55 54 54 53 59 56 53 51 50 52 63 62 65 62
55 54 54 54 56 56 55 55 55 54 54 54 54 54 52 53 54 55 54 54 55 54 54 54 54 53 54 53 53 53 52 53 51 51 53 52 54 55 48 48 54 57 60
54 55 55 55 55 56 55 54 54 53 54 53 53 52 51 52 53 52 53 53 54 54 53 53 53 53 53 52 53 52 51 52 52 53 52 50 48 48 42 42 43 48 54
54 53 53 54 54 54 54 54 54 52 53 52 52 52 52 52 51 52 52 52 52 52 51 52 51 52 51 51 52 51 51 51 50 50 51 52 51 48 46 43 41 40 47
53 53 54 54 54 53 54 54 54 52 53 53 52 53 53 53 52 51 52 51 51 51 51 51 51 50 51 51 51 51 51 50 50 49 49 50 51 51 47 43 39 38 43
53 54 55 54 54 54 53 54 54 53 53 53 52 52 52 51 51 50 51 51 50 51 50 49 49 50 50 50 50 50 49 49 49 49 48 48 49 49 48 46 44 39 35
55 56 55 54 55 55 55 53 54 53 53 53 53 52 51 51 50 50 48 48 49 49 49 48 49 49 49 49 49 48 48 47 47 48 44 43 45 46 47 46 45 44 40
55 56 56 56 56 56 55 54 53 52 52 52 51 50 50 49 49 48 48 47 48 48 47 47 48 48 48 48 47 46 46 45 43 42 42 42 43 42 44 45 45 44 43
57 57 57 55 54 54 54 53 53 53 52 52 51 49 49 49 48 47 47 47 46 47 47 47 47 47 47 46 45 44 44 41 41 41 41 41 43 42 43 43 42 42 43
56 56 55 54 54 54 53 54 53 53 52 52 50 48 48 47 46 46 46 46 46 46 47 47 46 46 45 45 45 44 43 43 43 42 40 40 40 40 41 41 41 41 41
54 54 54 54 54 54 53 53 52 52 52 51 50 47 47 47 46 46 46 46 46 46 47 46 46 45 45 44 44 44 43 44 44 43 43 42 40 40 40 40 39 39 38
53 53 53 53 53 52 52 52 51 51 51 49 49 46 46 46 46 45 45 45 45 45 46 45 45 45 44 43 41 42 43 43 43 43 44 43 41 40 39 38 37 37 36
53 53 54 53 52 52 51 50 50 49 50 48 47 46 46 46 45 45 44 44 44 44 44 44 43 43 44 38 38 38 43 43 42 42 43 43 42 40 38 37 37 37 35
53 53 54 53 54 53 51 50 49 49 48 47 46 45 45 45 44 44 44 43 43 44 43 43 43 42 42 37 37 36 43 43 42 42 41 41 43 39 38 38 38 38 37
54 55 56 55 55 53 52 50 50 49 47 47 46 45 45 44 44 44 43 43 43 43 42 42 42 42 41 37 37 36 42 42 42 42 41 40 40 38 36 37 37 38 39
56 56 56 55 53 51 51 50 48 48 47 45 45 45 45 44 43 43 42 42 43 42 42 42 41 40 40 36 36 38 41 41 40 41 41 39 38 35 35 36 35 35 37
56 54 54 53 51 51 51 48 47 47 46 45 45 45 45 44 43 43 42 42 42 41 42 41 40 37 40 36 36 37 40 38 38 39 39 35 34 34 35 34 34 32 33
54 55 52 51 51 50 50 48 47 46 47 46 45 45 45 43 43 42 42 42 41 41 40 40 40 39 37 38 35 35 38 37 36 35 34 36 34 34 34 34 35 33 33
54 53 51 51 50 50 50 47 46 48 47 45 44 43 43 43 42 42 41 41 41 40 39 39 38 38 39 34 34 34 33 33 36 35 34 36 34 34 34 34 33 33 33
53 54 53 49 49 50 51 48 48 47 45 44 43 42 42 42 42 42 41 40 40 39 38 38 36 36 37 38 34 34 33 33 34 35 33 33 33 33 34 33 33 33 33
52 54 51 48 47 51 50 50 47 46 45 43 42 42 42 41 41 41 41 40 39 38 37 36 35 35 36 36 36 36 36 33 35 33 35 33 32 33 33 35 35 36 35
53 52 50 49 48 50 49 48 47 46 44 43 42 41 41 41 40 40 40 39 38 38 36 35 34 33 33 33 33 32 33 33 32 32 34 33 32 32 32 33 33 34 34
52 50 51 50 48 49 47 47 47 46 43 42 41 41 41 40 40 38 36 33 34 33 32 31 33 35 32 31 30 30 30 29 29 33 31 29 29 29 30 30 30 32 31
MSLP
1022.48 1022.61 1022.58 1022.47 1022.39 1022.47 1022.50 1022.55 1022.76 1023.00 1022.95 1023.18 1023.44 1023.67 1024.04 1024.35 1024.59 1024.70 1024.70 1024.55 1024.47 1024.28 1024.01 1023.68 1023.49 1023.25 1023.15 1023.09 1022.58 1022.24 1021.55 1020.89 1020.56 1018.98 1017.92 1016.89 1015.91 1015.63 1015.98 1015.83 1015.19 1014.83 1014.68
1022.58 1022.88 1022.88 1022.85 1022.87 1022.88 1023.00 1023.09 1023.30 1023.41 1023.23 1023.46 1023.89 1024.18 1024.39 1025.03 1025.02 1025.26 1025.39 1025.11 1025.24 1025.02 1024.72 1024.48 1024.24 1024.07 1023.68 1023.54 1023.31 1022.84 1022.22 1021.62 1021.53 1021.15 1019.71 1017.61 1016.31 1016.14 1016.29 1015.91 1015.66 1015.86 1015.62
1022.61 1022.98 1023.21 1023.42 1023.41 1023.45 1023.54 1023.58 1023.90 1023.80 1023.91 1024.12 1024.35 1024.65 1024.92 1025.34 1025.26 1025.51 1025.68 1026.05 1025.86 1025.54 1025.33 1025.14 1024.89 1024.62 1024.37 1024.21 1024.06 1023.85 1023.33 1022.69 1022.12 1022.19 1021.96 1020.78 1019.46 1018.52 1016.23 1016.36 1016.44 1016.53 1016.33
1022.60 1023.10 1023.37 1023.62 1023.80 1024.10 1024.22 1024.19 1024.36 1024.42 1024.58 1024.62 1024.72 1024.99 1025.23 1025.59 1025.98 1026.11 1026.32 1026.37 1026.27 1026.04 1025.78 1025.59 1025.36 1025.17 1024.96 1024.85 1024.64 1024.52 1024.17 1023.63 1023.05 1022.60 1023.17 1023.23 1022.78 1021.15 1018.45 1017.23 1017.40 1017.05 1016.95
1022.15 1022.76 1023.32 1023.68 1024.05 1024.38 1024.48 1024.72 1024.76 1025.14 1025.34 1025.40 1025.50 1025.67 1025.82 1026.20 1026.47 1026.56 1026.60 1026.57 1026.46 1026.41 1026.17 1026.05 1025.86 1025.67 1025.44 1025.45 1025.34 1025.06 1024.78 1024.49 1024.23 1023.81 1023.57 1023.32 1022.95 1022.07 1021.87 1019.18 1017.73 1018.00 1017.53
1021.97 1022.70 1023.23 1023.56 1023.99 1024.52 1024.74 1025.15 1025.19 1025.66 1025.89 1026.01 1026.03 1026.00 1026.16 1026.46 1026.55 1026.58 1026.41 1026.51 1026.62 1026.63 1026.69 1026.48 1026.30 1026.08 1025.85 1025.72 1025.53 1025.37 1025.30 1025.08 1024.80 1024.47 1024.18 1023.96 1023.76 1023.26 1023.03 1021.62 1020.46 1019.11 1017.39
1021.47 1022.21 1022.87 1023.25 1023.87 1024.34 1024.83 1025.22 1025.53 1026.04 1026.29 1026.26 1026.19 1026.37 1026.54 1026.64 1026.64 1026.65 1026.77 1026.86 1026.90 1026.91 1027.12 1027.02 1026.78 1026.50 1026.44 1026.25 1025.98 1025.78 1025.63 1025.40 1025.18 1024.93 1024.56 1024.21 1024.03 1023.93 1023.38 1022.67 1021.38 1020.06 1018.69
1020.90 1021.87 1022.44 1022.95 1023.54 1024.23 1024.73 1025.08 1025.55 1025.91 1026.31 1026.37 1026.61 1026.91 1026.78 1026.78 1026.88 1027.02 1027.08 1027.25 1027.08 1027.23 1027.38 1027.36 1027.18 1027.06 1026.86 1026.63 1026.44 1026.14 1025.89 1025.70 1025.48 1025.30 1025.05 1024.72 1024.18 1023.77 1023.51 1023.22 1022.32 1019.86 1018.54
1020.12 1021.11 1021.95 1022.63 1023.29 1023.98 1024.55 1024.94 1025.42 1025.99 1026.36 1026.65 1026.87 1027.02 1026.97 1027.11 1027.30 1027.50 1027.46 1027.42 1027.39 1027.34 1027.66 1027.65 1027.52 1027.39 1027.22 1026.94 1026.65 1026.36 1026.20 1026.09 1025.87 1025.57 1025.33 1024.99 1024.46 1024.04 1023.62 1023.23 1022.79 1021.94 1019.06
1019.27 1020.40 1021.27 1022.10 1022.91 1023.68 1024.35 1024.91 1025.43 1026.00 1026.53 1026.82 1026.98 1027.18 1027.47 1027.65 1027.71 1027.71 1027.71 1027.69 1027.91 1027.89 1028.00 1028.02 1027.92 1027.77 1027.48 1027.21 1027.01 1026.69 1026.55 1026.35 1026.07 1025.83 1025.75 1025.45 1024.96 1024.37 1023.71 1023.05 1022.45 1021.91 1020.82
1017.96 1019.32 1020.39 1021.50 1022.52 1023.40 1024.14 1024.78 1025.43 1025.88 1026.44 1026.84 1027.23 1027.47 1027.69 1027.81 1027.80 1027.76 1027.91 1028.07 1028.24 1028.27 1028.36 1028.36 1028.00 1027.76 1027.59 1027.44 1027.17 1027.02 1026.82 1026.59 1026.51 1026.34 1025.94 1025.47 1025.05 1024.47 1023.77 1023.09 1022.38 1021.58 1020.79
1016.74 1018.30 1019.63 1020.93 1022.10 1023.04 1023.87 1024.64 1025.26 1025.65 1026.31 1026.85 1027.19 1027.48 1027.76 1027.73 1027.70 1027.91 1028.13 1028.25 1028.43 1028.70 1028.60 1028.27 1027.94 1027.87 1027.88 1027.73 1027.54 1027.22 1027.03 1026.81 1026.44 1026.26 1025.85 1025.33 1024.90 1024.30 1023.70 1023.02 1022.27 1021.47 1020.68
1016.35 1017.74 1019.44 1020.59 1021.57 1022.49 1023.39 1024.25 1025.01 1025.57 1026.20 1026.68 1027.01 1027.44 1027.74 1027.85 1028.03 1028.23 1028.32 1028.58 1028.57 1028.55 1028.47 1028.34 1028.19 1028.20 1028.19 1027.95 1027.63 1027.25 1026.99 1026.63 1026.37 1026.10 1025.74 1025.28 1024.82 1024.17 1023.45 1022.85 1021.95 1021.20 1020.30
1015.80 1017.27 1018.75 1019.95 1021.01 1022.01 1022.93 1023.87 1024.80 1025.47 1026.06 1026.51 1026.90 1027.41 1027.84 1028.06 1028.29 1028.40 1028.57 1028.67 1028.71 1028.51 1028.40 1028.61 1028.61 1028.47 1028.39 1028.15 1027.78 1027.40 1027.09 1026.66 1026.27 1025.96 1025.55 1025.08 1024.69 1024.06 1023.52 1022.73 1022.00 1021.03 1019.88
1015.42 1016.56 1017.83 1019.16 1020.45 1021.64 1022.66 1023.65 1024.55 1025.23 1025.82 1026.30 1026.78 1027.43 1027.93 1028.24 1028.43 1028.57 1028.67 1028.88 1028.75 1028.60 1028.73 1028.88 1028.93 1028.74 1028.51 1028.61 1028.33 1027.71 1027.13 1026.67 1026.23 1025.74 1025.19 1024.74 1024.54 1024.09 1023.70 1022.94 1021.93 1020.95 1019.70
1014.07 1015.67 1017.10 1018.43 1019.64 1020.84 1021.97 1023.16 1024.01 1024.93 1025.56 1026.04 1026.73 1027.48 1027.97 1028.29 1028.55 1028.60 1028.83 1028.77 1028.69 1028.85 1029.03 1029.08 1029.09 1028.85 1028.66 1029.12 1028.83 1028.29 1027.15 1026.64 1026.11 1025.58 1025.01 1024.50 1023.89 1023.74 1023.21 1022.66 1021.82 1020.95 1019.67
1012.89 1014.33 1015.65 1017.27 1018.55 1019.87 1021.13 1022.46 1023.61 1024.66 1025.34 1025.96 1026.79 1027.44 1027.81 1028.14 1028.35 1028.64 1028.64 1028.60 1028.85 1029.11 1029.17 1029.26 1029.14 1028.99 1028.93 1029.14 1028.60 1028.20 1026.93 1026.42 1026.11 1025.63 1025.15 1024.57 1023.88 1023.51 1023.08 1022.00 1021.07 1020.16 1019.41
1012.02 1013.44 1014.81 1016.46 1017.91 1019.43 1020.84 1022.30 1023.45 1024.29 1025.12 1025.90 1026.64 1027.22 1027.55 1027.83 1028.28 1028.39 1028.47 1028.74 1028.99 1029.19 1029.30 1029.36 1029.18 1029.12 1028.98 1029.26 1028.65 1027.90 1026.85 1026.40 1026.08 1025.71 1025.22 1024.81 1024.15 1023.63 1023.01 1021.74 1020.61 1019.70 1018.65
1010.03 1011.72 1013.56 1015.37 1017.32 1018.82 1020.31 1021.85 1023.13 1024.05 1024.93 1025.63 1026.26 1026.86 1027.22 1027.69 1027.98 1028.14 1028.48 1028.83 1029.01 1029.25 1029.34 1029.35 1029.24 1029.07 1028.98 1029.20 1028.70 1027.88 1026.94 1026.48 1026.05 1025.60 1025.25 1025.16 1024.41 1023.81 1022.88 1021.63 1020.46 1019.43 1018.11
1010.21 1011.68 1013.40 1015.35 1016.91 1018.38 1019.80 1021.31 1022.53 1023.54 1024.44 1025.14 1025.88 1026.52 1027.13 1027.51 1027.77 1028.11 1028.48 1028.91 1029.16 1029.22 1029.20 1029.24 1029.24 1029.36 1028.92 1029.19 1028.81 1028.40 1027.52 1026.85 1026.35 1025.80 1025.27 1025.08 1024.71 1023.71 1022.75 1021.90 1020.67 1019.35 1018.18
1009.51 1011.36 1013.07 1014.26 1015.81 1017.66 1019.31 1020.78 1021.93 1022.94 1023.86 1024.86 1025.71 1026.47 1027.05 1027.41 1027.81 1028.19 1028.59 1028.99 1029.02 1029.04 1029.09 1029.09 1029.18 1029.07 1029.15 1028.79 1028.97 1028.67 1027.94 1027.49 1026.75 1026.09 1025.50 1024.93 1024.52 1023.63 1022.85 1022.20 1021.13 1020.12 1018.63
1009.31 1011.01 1012.29 1014.09 1015.83 1017.30 1018.70 1020.11 1021.33 1022.53 1023.62 1024.60 1025.50 1026.36 1026.91 1027.36 1027.84 1028.29 1028.77 1028.85 1028.76 1028.83 1028.96 1028.98 1029.09 1029.14 1028.91 1029.17 1028.94 1028.78 1028.48 1028.01 1027.05 1026.18 1025.71 1024.99 1024.52 1023.66 1022.76 1021.94 1020.95 1019.70 1018.43
1008.31 1009.95 1011.42 1013.34 1015.40 1016.76 1017.92 1019.29 1020.77 1022.05 1023.23 1024.34 1025.33 1026.14 1026.82 1027.43 1028.03 1028.35 1028.45 1028.52 1028.72 1028.80 1028.94 1029.01 1029.10 1029.12 1029.01 1028.87 1028.91 1028.45 1028.12 1027.70 1027.14 1026.57 1026.11 1025.38 1024.55 1023.56 1022.52 1021.69 1020.71 1019.64 1018.67
1008.04 1009.58 1011.28 1012.89 1014.59 1016.17 1017.56 1018.62 1020.24 1021.61 1022.81 1023.93 1025.07 1026.06 1026.64 1027.44 1028.02 1028.25 1028.39 1028.55 1028.74 1028.92 1029.07 1029.18 1029.25 1029.26 1029.19 1029.05 1028.73 1028.32 1027.79 1027.49 1026.84 1026.58 1025.85 1025.48 1024.65 1023.61 1022.86 1021.72 1020.83 1020.03 1019.14
1007.59 1008.94 1010.38 1011.78 1013.66 1015.52 1016.95 1018.43 1019.77 1021.21 1022.36 1023.64 1024.87 1025.80 1026.60 1027.15 1027.73 1028.11 1028.49 1028.77 1029.14 1029.28 1029.37 1029.54 1029.61 1029.67 1029.65 1029.79 1029.77 1029.35 1028.53 1028.22 1027.78 1026.98 1026.11 1025.19 1024.24 1023.44 1022.62 1021.92 1021.31 1020.44 1019.40
1007.38 1008.67 1010.00 1011.39 1013.14 1014.85 1016.50 1018.08 1019.53 1020.60 1021.75 1023.29 1024.56 1025.47 1026.13 1026.83 1027.34 1027.96 1028.86 1029.56 1029.64 1029.87 1030.02 1030.21 1030.14 1029.95 1030.35 1030.31 1030.02 1029.48 1028.98 1028.69 1027.94 1026.86 1026.12 1025.57 1025.14 1024.44 1023.72 1022.95 1022.09 1021.07 1020.02
Wind_Speed
8 8 9 10 12 12 12 11 10 8 5 5 6 8 9 9 8 9 13 13 12 12 11 9 10 9 9 10 11 9 9 7 11 7 7 8 8 7 6 8 9 10 12
10 9 10 11 12 13 12 13 12 10 9 7 7 6 8 8 8 8 11 13 12 12 11 10 10 11 8 11 12 12 7 6 10 7 7 7 6 5 12 7 8 11 10
13 11 10 10 11 12 12 13 12 12 11 11 9 9 8 7 8 8 9 10 11 12 12 12 10 10 9 9 10 10 11 7 6 8 6 5 5 13 5 12 9 15 11
12 10 11 11 11 11 11 13 13 13 11 11 10 12 9 9 7 7 7 8 11 12 12 11 11 10 8 10 9 9 9 8 8 5 7 5 7 6 11 7 14 10 16
14 14 13 13 13 11 12 12 14 13 12 11 11 9 11 8 6 6 7 8 9 12 12 11 10 10 8 9 10 10 10 7 6 6 8 5 8 4 7 14 13 13 13
15 14 13 13 13 11 12 11 14 12 11 11 12 12 12 10 8 8 7 7 7 7 11 10 9 9 9 9 8 9 10 9 7 6 6 6 5 9 7 9 13 18 12
17 16 16 14 13 13 12 11 13 12 11 11 12 11 11 11 10 8 7 7 6 7 9 9 10 9 10 9 9 10 9 10 9 10 8 7 7 6 9 9 12 12 13
17 18 17 15 14 14 12 12 12 12 11 11 11 9 10 7 7 9 7 6 6 7 9 9 10 10 10 10 9 7 8 10 9 11 9 9 8 8 8 8 11 15 11
21 20 18 15 15 13 13 13 12 11 11 10 9 9 9 10 8 8 8 7 8 7 9 9 9 9 9 10 10 8 10 10 9 9 10 9 9 9 9 8 8 9 15
23 20 18 17 14 13 12 12 12 13 12 10 9 9 9 9 8 8 10 10 9 9 9 8 8 8 8 10 10 8 10 10 9 8 11 11 9 11 10 9 8 8 11
25 22 19 17 15 14 13 12 12 13 11 10 10 9 9 9 9 9 9 9 8 8 8 7 7 8 9 11 10 11 11 11 11 10 10 11 11 9 9 9 10 10 11
24 22 20 18 17 16 14 14 13 13 12 11 10 10 9 9 10 9 8 8 8 7 7 8 8 8 10 11 11 11 11 11 11 12 12 12 10 13 12 9 13 11 12
24 22 20 19 18 17 15 14 13 13 12 11 11 10 9 9 9 9 8 7 7 8 8 8 9 8 10 11 12 12 11 11 10 12 12 13 13 13 11 13 12 11 11
22 21 20 20 18 17 16 15 14 13 12 11 11 10 9 9 8 8 8 8 7 8 9 8 8 7 10 11 13 13 11 11 11 12 12 12 13 14 16 14 14 14 14
23 22 21 19 19 17 16 15 14 13 13 12 11 10 9 9 8 8 8 7 8 8 8 7 7 6 9 10 14 13 9 11 12 12 12 12 14 19 17 12 15 17 14
25 24 23 23 21 20 18 15 15 14 12 12 11 10 10 9 8 8 7 7 7 8 7 7 6 7 7 12 16 15 9 10 11 12 13 14 15 18 19 22 22 18 15
26 26 25 22 20 19 17 17 16 14 12 12 11 10 10 9 8 8 7 8 7 6 6 7 7 7 9 15 17 16 9 10 12 13 13 13 12 15 19 22 21 18 19
26 25 22 20 19 18 17 16 16 15 13 12 12 10 10 10 8 8 8 7 6 6 5 6 7 6 8 15 17 17 12 11 12 12 13 15 16 17 21 20 18 17 17
25 23 21 20 19 19 18 18 17 15 14 13 12 11 10 10 9 8 7 6 5 5 5 5 7 7 7 14 18 17 11 12 14 13 13 14 16 25 27 19 19 19 17
23 23 21 20 20 19 19 18 18 16 15 14 12 11 10 9 9 8 7 6 5 5 4 6 7 7 8 12 17 16 9 12 11 13 13 16 20 26 26 18 17 18 19
24 22 23 23 23 21 20 19 18 17 15 14 13 11 10 9 9 8 6 5 5 5 5 5 6 7 8 10 17 18 10 10 10 9 10 11 24 25 25 24 16 18 20
25 24 22 20 19 21 20 19 19 16 16 15 13 11 10 7 7 7 6 5 5 5 5 5 5 5 7 10 14 16 16 15 10 11 10 12 24 24 22 18 24 25 17
24 23 23 22 20 21 20 20 18 18 17 15 14 12 10 8 7 7 6 5 5 4 4 4 5 5 6 7 12 14 17 15 10 10 14 19 21 21 15 21 23 18 12
23 22 23 23 22 20 19 18 19 18 18 16 14 12 10 9 7 5 4 4 4 4 4 4 5 5 6 8 9 10 10 12 10 12 10 10 11 12 13 14 15 13 13
22 22 23 23 23 21 20 19 20 20 17 15 13 12 9 9 8 6 4 5 5 4 3 4 4 5 5 8 11 11 8 9 10 10 8 9 12 13 13 13 14 13 14
21 21 23 24 23 21 20 20 20 19 18 15 12 10 9 8 7 7 7 8 10 11 10 10 7 3 6 10 12 12 10 13 12 6 9 11 11 13 14 14 14 14 17
Wind_Direction
101 88 82 84 88 81 87 88 79 63 96 86 93 84 81 74 65 59 51 49 44 43 40 42 36 33 37 26 19 1 359 8 357 331 319 287 273 283 360 340 315 321 325
120 102 88 83 79 85 85 87 87 86 85 93 93 93 88 74 74 67 57 50 47 45 49 44 43 37 37 34 27 18 2 3 22 355 303 333 316 22 322 328 326 357 341
143 131 116 105 100 90 86 88 90 90 89 102 105 99 93 92 77 64 59 49 47 47 44 43 41 39 36 33 28 20 20 2 13 36 9 337 330 333 293 324 344 330 339
152 142 132 118 111 107 105 97 90 89 85 90 92 92 91 91 78 73 66 61 48 47 46 44 42 41 37 34 26 25 18 6 7 13 22 344 339 322 314 324 318 341 322
165 156 147 137 126 121 109 102 98 94 93 95 99 99 98 92 90 86 84 68 57 46 42 40 39 38 35 32 29 26 23 23 11 1 353 360 317 267 315 299 324 314 317
170 159 147 140 133 131 121 118 108 104 103 102 102 99 100 100 94 77 70 58 52 43 38 38 37 36 34 30 30 30 29 21 17 358 359 347 338 318 307 299 309 310 317
171 165 161 154 149 144 137 129 123 119 115 106 100 98 97 94 86 81 69 64 57 47 39 36 37 36 34 35 33 30 26 13 5 355 342 341 328 314 312 307 304 303 307
173 175 170 161 156 154 151 139 134 125 119 110 106 104 99 90 84 72 71 66 65 56 48 47 45 42 39 35 29 22 13 5 356 352 344 333 324 324 321 310 310 309 302
176 178 171 166 161 160 158 150 141 133 128 119 112 97 86 84 83 77 77 72 65 64 53 47 44 42 41 32 14 14 11 0 355 345 348 335 331 328 317 308 302 304 310
177 177 173 169 165 160 156 152 149 147 140 127 115 105 101 96 88 83 78 71 69 62 58 52 51 51 45 28 17 12 11 360 0 354 346 342 332 328 324 311 301 291 292
177 176 172 169 166 159 156 154 152 147 140 128 125 120 112 99 91 84 77 73 71 65 62 59 57 52 38 25 22 14 10 5 3 355 341 335 331 321 313 318 315 311 303
171 173 168 166 167 165 161 161 156 151 146 139 130 116 107 98 90 85 82 76 75 73 69 56 57 52 37 29 21 15 13 7 360 353 344 342 337 334 327 320 317 311 309
170 167 166 172 172 168 164 162 161 153 148 140 128 120 108 102 97 94 89 87 86 77 67 59 55 52 34 27 20 14 10 5 2 356 348 345 343 336 333 330 325 320 315
166 168 172 175 173 170 165 163 160 156 150 142 132 123 118 113 108 99 94 88 80 73 64 54 50 50 35 24 13 7 359 1 359 355 352 351 344 344 341 335 331 321 313
173 176 173 173 172 169 165 163 159 156 152 141 134 126 123 118 112 104 99 91 77 70 63 56 50 46 41 23 9 358 356 357 356 354 354 354 345 346 334 333 327 320 313
177 174 174 174 173 171 166 162 158 158 153 144 138 136 135 127 119 109 104 94 82 72 63 50 46 43 42 14 11 356 356 358 359 353 352 349 351 345 340 332 323 314 310
177 176 176 173 173 170 160 165 162 156 154 146 146 146 141 132 121 116 100 84 77 76 65 50 47 48 33 13 5 352 5 358 357 354 350 345 347 343 342 334 328 329 320
178 177 174 173 169 160 158 155 157 159 154 153 152 151 145 131 127 113 97 92 81 64 60 50 43 43 44 11 4 349 3 359 356 352 350 345 344 348 341 334 335 334 328
179 173 169 166 159 157 153 156 160 160 159 159 157 154 146 138 130 115 103 93 88 67 59 50 38 35 37 18 8 357 1 352 352 350 347 345 346 344 343 338 336 333 333
173 168 163 158 156 156 155 156 163 163 168 162 157 150 147 139 128 120 108 98 93 74 67 56 37 33 23 28 13 6 355 351 346 342 347 350 347 344 345 342 336 334 335
166 159 158 163 162 155 157 161 162 172 162 153 148 147 146 136 130 122 117 117 102 87 70 53 37 28 25 17 10 8 358 355 342 341 340 338 343 341 341 343 342 333 325
163 164 160 158 154 158 159 160 168 160 152 149 147 148 142 135 136 135 140 120 97 82 65 47 37 23 14 18 6 2 5 355 346 351 341 337 341 342 340 342 340 339 339
165 165 160 153 157 161 163 161 160 155 150 149 149 145 140 138 145 147 136 114 94 78 60 40 31 19 11 3 4 0 358 357 345 351 332 334 340 342 343 348 349 347 347
164 161 156 156 156 162 164 156 154 153 152 150 150 149 147 146 148 138 122 116 101 84 60 44 31 18 9 6 1 356 354 353 352 347 347 338 337 350 350 354 354 350 350
162 161 162 160 158 158 157 153 152 156 153 151 152 154 150 156 146 127 121 115 83 65 77 61 38 19 11 6 352 351 351 350 345 322 347 0 3 359 359 357 354 349 348
164 164 163 158 155 154 152 155 159 158 152 155 160 161 158 155 148 139 123 87 104 98 87 76 38 58 14 358 355 359 3 357 349 5 9 9 4 2 355 353 348 348 349